Location: *
(43.0833°N, 13.0500°E)
Time: 03:48:42
(UTC+00:00)

USA 215 - Pass Details

Date: 15 November 2019
Orbit: 1101 x 1107 km, 123.0° (Epoch: 02 December)

Event Time Altitude Azimuth Distance (km) Brightness Sun altitude
Exits shadow 16:08:45 - 68° (ENE) 3,357 5.1 -4.9°
Reaches altitude 10° 16:09:58 10° 63° (ENE) 2,961 4.9 -5.1°
Maximum altitude 16:15:16 27° 8° (N) 1,963 4.4 -6.0°
Drops below altitude 10° 16:20:33 10° 314° (NW) 2,963 5.9 -7.0°
Sets 16:23:24 0° 303° (WNW) 3,922 6.8 -7.5°
